GEFSNE_500_meanwind_024.txt.gz
Wind_Speed
31 30 29 29 29 29 28 27 27 26 26 28 27 27 27 26 25 23 23 22 20 19 18 18 17 16 15 15 16 16 15 14 13 13 13 13 12 12
28 28 28 28 27 26 26 26 26 26 25 27 27 27 26 25 24 24 23 23 21 19 18 17 16 15 14 13 14 14 14 14 13 13 13 12 11 11
28 28 27 26 26 25 25 25 25 25 24 25 27 26 26 25 24 23 22 22 21 19 17 16 15 14 14 14 14 14 14 14 14 13 12 11 10 10
27 27 26 26 26 26 26 26 25 25 25 25 26 26 26 25 25 24 23 22 21 19 17 16 15 14 14 15 15 15 15 15 14 13 12 11 10 10
27 27 27 27 27 28 27 27 26 26 26 25 25 26 26 26 26 25 24 23 21 19 17 16 15 16 17 17 18 17 17 16 15 14 13 12 12 11
29 29 29 29 30 30 29 29 29 28 27 26 26 27 27 27 27 27 25 23 21 19 18 17 17 18 20 20 20 20 19 18 17 16 15 14 14 13
34 33 32 32 32 32 32 31 31 30 29 28 27 27 27 27 27 27 26 24 21 20 20 19 18 19 21 22 24 23 22 21 20 19 19 18 17 16
39 38 37 37 36 35 35 34 33 33 32 30 28 28 28 28 28 28 27 25 22 21 21 20 20 20 22 24 26 26 24 24 23 22 21 20 19 18
44 43 42 41 40 39 37 36 36 35 34 32 30 29 28 28 27 27 27 26 24 22 21 21 21 21 22 23 24 25 25 25 24 23 22 21 20 20
45 44 43 42 41 40 39 38 37 37 36 35 33 31 30 29 29 28 28 27 26 25 24 22 21 21 22 22 23 24 24 24 23 22 21 20 20 20
42 41 40 40 39 39 39 38 38 38 37 37 36 34 33 31 31 30 29 28 27 27 26 25 25 23 22 21 21 23 25 24 23 22 22 21 21 20
38 37 37 37 38 38 38 39 39 38 38 37 37 36 35 34 33 32 31 30 29 29 28 26 25 24 23 23 21 22 23 23 23 23 22 21 20 20
34 33 34 35 37 38 39 39 39 39 39 38 37 36 35 34 34 34 34 33 32 31 31 29 27 26 25 25 24 23 22 21 21 21 21 20 20 19
29 30 30 32 34 36 37 39 40 40 40 39 39 38 37 35 35 34 34 34 34 33 33 32 30 29 28 27 26 24 24 23 22 22 21 21 21 21
27 27 27 27 29 31 33 35 37 38 39 40 40 39 39 38 37 36 35 35 34 34 34 34 33 32 31 29 28 26 25 25 24 23 23 22 21 21
28 27 27 26 26 26 27 29 31 33 35 37 39 40 41 40 39 38 37 36 35 35 35 34 34 34 34 33 32 30 29 27 26 25 24 24 23 24
31 31 29 28 28 27 27 26 26 27 28 30 33 36 38 39 40 41 40 40 38 37 36 36 36 35 34 34 33 31 30 29 29 28 27 27 26 26
34 34 33 33 32 32 31 30 29 28 27 26 26 27 30 32 35 37 39 40 40 39 38 37 36 35 35 35 34 33 31 30 30 29 29 29 28 28
35 35 35 35 35 35 35 35 33 32 30 29 27 25 25 26 27 30 33 35 36 36 37 37 37 37 36 36 35 34 33 32 31 31 30 30 29 29
35 36 36 36 36 37 38 38 38 37 36 34 32 30 28 26 26 26 27 29 31 33 32 33 33 34 35 35 34 34 35 33 32 31 30 30 30 28
34 35 35 35 36 37 38 40 41 41 41 40 38 36 34 32 30 28 27 26 26 28 28 29 29 30 31 32 31 31 32 32 32 31 30 29 29 27
32 33 34 35 35 36 37 39 41 43 44 44 44 43 41 39 37 36 34 32 30 29 29 28 28 28 28 28 29 28 28 29 30 29 30 30 30 28
30 31 32 33 33 33 34 35 38 41 43 45 45 46 46 45 45 44 43 40 38 36 34 33 32 31 30 29 30 29 27 27 28 29 29 29 30 30

GEFSNE_500_meanwind_030.txt.gz
Wind_Speed
31 31 31 30 30 30 31 30 29 28 28 28 25 24 25 25 24 23 23 22 21 20 20 19 19 19 18 19 19 20 21 22 21 21 20 19 19 18
29 29 28 28 28 27 27 27 27 25 25 26 24 22 23 23 22 22 22 21 20 20 19 19 18 18 18 18 18 19 20 21 20 19 18 18 17 15
27 27 27 26 26 27 27 26 25 24 23 24 24 22 21 21 21 21 21 20 19 19 18 17 17 17 17 17 17 18 18 18 18 17 17 16 16 15
26 26 26 26 25 25 26 26 25 24 23 23 23 22 21 20 20 20 20 19 19 18 18 17 17 17 17 16 17 17 17 17 17 16 16 16 17 18
29 28 27 27 26 26 25 25 25 25 23 23 24 23 22 21 21 21 20 20 19 19 18 18 17 17 16 17 17 16 16 16 16 17 18 19 20 20
32 32 31 30 30 29 28 28 27 26 26 25 25 24 23 23 22 22 22 22 21 20 19 18 18 17 17 17 17 17 17 18 19 20 21 22 22 22
36 36 35 35 34 33 32 31 31 30 29 28 27 26 25 24 24 24 24 24 22 20 20 19 19 18 18 17 17 18 19 20 22 23 24 25 25 25
38 38 38 38 38 37 36 36 35 34 33 31 30 29 27 27 26 26 26 25 23 22 21 20 20 20 20 19 18 19 20 22 24 26 27 27 27 27
38 39 39 39 39 39 39 38 38 36 36 34 33 31 30 29 29 28 27 26 26 25 24 23 23 22 22 21 20 20 22 23 25 28 30 31 30 29
38 38 39 38 38 38 38 38 38 38 37 36 35 34 33 32 31 30 30 30 29 29 28 26 24 24 24 23 22 22 23 24 26 28 31 33 33 32
36 36 36 36 36 36 37 38 38 38 38 37 36 36 35 34 34 33 33 33 33 32 31 30 28 27 26 26 26 25 24 25 26 28 31 33 34 34
32 33 33 34 33 33 33 34 35 36 37 37 37 37 37 36 35 35 35 35 35 35 34 32 31 31 30 29 28 27 27 28 28 29 30 32 34 34
31 31 30 30 30 30 31 31 32 33 34 35 36 36 37 36 36 37 37 37 38 39 37 36 35 34 33 32 30 30 29 29 29 29 30 30 31 32
31 31 30 30 29 29 29 29 30 30 30 31 33 34 35 36 36 37 38 39 39 40 40 39 38 37 36 34 33 32 31 30 29 29 28 29 30 31
32 32 31 31 31 30 30 29 29 29 29 29 29 31 33 35 37 37 38 38 39 40 40 40 40 39 38 36 35 34 33 32 32 31 30 30 30 30
30 30 30 31 31 31 30 30 29 28 28 27 27 27 28 31 34 36 37 37 39 40 41 41 40 40 40 40 39 37 36 35 33 32 32 31 32 31
27 28 28 29 29 28 29 29 29 29 29 27 27 26 26 26 28 31 33 36 37 38 38 39 40 40 41 40 39 39 38 38 37 35 34 32 32 33
25 25 26 27 28 29 29 30 30 30 30 30 29 28 28 27 26 25 26 29 32 35 37 38 38 39 40 41 40 40 40 39 38 37 36 35 35 35
24 24 24 25 26 28 29 30 30 31 32 32 32 31 30 29 28 26 25 24 25 27 30 33 36 37 38 40 41 41 41 40 40 39 38 37 37 37
24 24 24 24 25 26 27 29 30 31 33 33 34 34 34 33 31 30 28 26 24 23 24 26 28 31 35 37 40 41 42 42 41 40 39 39 38 37
24 24 23 24 24 24 25 26 28 30 32 34 35 36 36 36 36 34 33 31 29 27 26 25 24 25 27 30 33 36 39 41 41 40 40 39 38 38
25 25 24 23 23 23 23 24 25 27 30 32 34 36 37 38 39 39 38 36 35 33 30 28 27 26 25 25 26 28 31 35 37 38 39 39 38 38
28 27 26 25 24 23 23 22 23 24 26 28 31 34 36 37 39 40 41 41 39 38 37 35 32 31 29 28 27 27 28 30 32 34 35 36 36 36

GEFSNE_500_meanwind_036.txt.gz
Wind_Speed
30 29 29 29 29 28 29 29 28 27 28 31 33 32 31 30 31 32 32 32 30 28 28 27 26 26 25 25 25 25 24 24 24 24 24 24 24 25
28 28 28 28 28 27 27 27 27 26 26 28 30 30 29 29 30 31 31 30 29 28 27 26 26 26 25 25 24 24 24 24 24 24 23 23 24 25
29 29 29 29 29 28 27 27 27 26 26 27 29 29 28 28 29 30 29 27 26 27 26 25 25 24 24 24 24 24 24 24 24 23 24 25 24 23
30 30 30 30 31 30 30 29 29 27 26 26 28 29 29 29 28 28 27 26 25 25 25 23 23 23 22 22 22 22 22 23 23 23 25 24 23 22
33 33 32 32 32 32 32 32 31 30 29 28 28 28 28 28 28 27 26 26 26 26 25 24 23 23 22 21 21 21 22 22 23 23 24 24 22 21
34 34 34 34 34 34 34 34 34 33 32 31 30 30 30 29 28 28 27 27 26 26 25 25 23 22 21 21 22 21 22 23 23 23 22 22 22 21
35 35 35 35 35 36 36 36 36 36 35 34 33 32 32 31 30 29 29 29 28 27 26 25 24 23 22 21 21 22 23 23 23 23 22 22 22 21
35 35 36 36 36 36 37 37 37 37 37 36 36 35 35 34 33 33 32 31 30 28 27 26 26 25 24 23 22 22 22 23 23 23 23 23 22 22
34 35 36 36 36 37 37 37 37 38 38 38 38 37 37 37 36 35 35 33 31 30 29 29 28 26 25 24 23 22 22 23 24 23 23 23 23 24
32 33 34 35 36 36 36 37 37 37 37 38 39 39 39 39 39 38 37 36 35 34 33 31 30 29 28 26 25 24 24 23 24 24 25 25 25 26
30 32 33 34 34 35 36 36 36 36 36 36 37 39 40 40 40 40 40 39 38 37 36 34 32 31 31 29 27 27 27 26 26 26 26 26 26 27
29 30 32 33 35 35 36 36 36 36 35 35 36 37 38 39 40 40 40 40 40 39 38 36 35 34 33 32 31 30 28 28 28 28 28 27 26 26
29 30 31 32 33 33 34 34 34 34 34 34 34 34 35 36 37 38 40 41 41 41 41 39 37 36 36 35 34 33 32 31 29 29 29 28 28 28
28 29 29 30 30 31 31 32 32 32 32 32 32 33 33 34 35 35 36 38 40 42 43 42 41 40 38 36 35 34 33 33 31 30 30 30 30 29
26 27 27 28 28 29 29 29 30 30 30 30 31 31 32 32 33 33 33 35 37 40 43 44 44 44 43 40 37 35 35 35 34 33 32 32 33 32
25 26 27 27 27 27 26 26 26 27 27 28 28 29 30 31 31 31 32 32 34 37 39 43 45 45 45 44 42 39 37 35 35 36 36 35 35 35
26 26 27 27 27 26 26 25 25 25 25 26 26 27 28 29 30 30 31 31 31 33 35 39 42 45 45 44 43 42 40 38 38 38 38 38 37 37
26 26 27 27 26 25 25 24 24 24 24 24 24 25 26 28 29 29 30 31 31 31 32 34 37 40 43 44 44 43 42 40 39 39 39 39 39 39
24 25 26 27 26 26 25 24 24 23 23 23 23 24 25 26 28 29 30 30 30 30 30 30 32 33 36 38 40 42 41 41 40 40 41 41 40 40
24 25 26 27 28 27 27 26 25 24 24 23 22 22 23 25 27 29 30 31 31 30 30 29 29 29 30 32 34 37 39 40 40 40 40 40 41 41
24 25 26 27 28 29 29 28 27 25 24 23 22 21 22 23 24 27 29 31 32 32 31 30 30 29 28 28 29 31 33 36 37 38 39 39 40 40
25 26 27 28 29 29 30 29 29 27 25 24 23 22 21 21 22 24 26 29 32 33 34 34 33 32 31 29 28 28 28 30 32 34 35 36 37 38
25 26 28 29 30 30 31 31 30 28 27 25 24 23 22 21 20 21 23 26 29 32 35 36 36 35 34 33 31 30 29 28 29 30 31 33 34 35

GEFSNE_500_meanwind_042.txt.gz
Wind_Speed
29 29 29 29 28 28 28 28 28 28 29 30 31 31 30 31 32 32 33 33 33 34 34 34 34 35 36 35 34 31 30 30 29 28 27 27 26 26
30 30 29 29 29 29 29 29 29 29 29 31 32 32 32 31 31 32 33 33 32 32 32 33 33 34 35 35 33 31 30 29 29 29 28 27 27 27
30 30 29 30 30 31 31 30 30 31 31 32 33 33 34 34 33 32 32 32 32 31 31 31 32 32 32 33 32 31 30 30 29 29 29 28 28 27
30 30 30 31 32 32 32 33 33 33 33 34 35 35 35 35 35 34 33 33 33 32 31 31 31 31 31 30 30 29 30 29 29 29 29 29 29 29
30 30 31 32 32 33 34 34 35 36 36 36 36 37 37 37 36 35 34 33 33 33 32 32 31 29 29 28 28 27 27 28 28 28 29 29 30 31
29 30 31 32 33 34 35 36 37 38 38 39 39 38 38 38 38 37 36 35 34 33 32 32 31 30 29 28 27 27 27 27 27 28 29 30 32 32
28 30 31 32 33 34 35 36 37 38 39 40 40 40 40 40 40 39 38 37 36 35 33 32 31 32 31 28 28 27 26 27 27 29 30 31 32 32
28 29 30 32 32 33 34 35 36 37 38 39 40 40 40 41 41 40 39 38 38 37 35 34 33 31 30 29 29 28 28 27 28 29 30 30 31 31
26 27 29 29 31 32 33 34 35 36 37 39 39 40 40 40 40 40 40 39 39 38 38 36 35 33 31 30 29 29 30 30 29 30 32 32 31 30
24 25 26 27 28 30 31 32 34 36 37 38 39 40 40 40 40 39 39 39 39 39 38 37 36 34 32 30 31 31 31 31 30 30 32 32 32 31
20 21 23 25 27 28 30 32 33 35 36 37 38 39 39 39 39 39 38 38 38 38 38 37 36 35 34 32 31 32 33 33 33 32 32 32 31 31
18 20 22 24 26 28 29 31 33 34 35 35 36 36 36 36 36 36 36 36 36 37 37 36 35 35 34 34 33 33 34 34 33 32 31 32 31 30
17 19 21 23 24 26 28 29 30 31 32 32 32 32 33 33 33 33 33 34 34 35 35 35 35 35 34 34 34 34 33 34 33 32 31 31 31 30
16 18 20 22 23 25 26 28 28 29 29 29 29 29 29 29 30 31 31 31 32 32 33 34 35 35 35 34 33 33 32 32 32 32 32 33 32 31
15 17 19 21 22 24 26 27 27 26 26 26 26 26 26 26 26 27 28 28 29 30 31 32 34 36 37 37 37 34 33 32 32 32 31 32 32 32
15 16 18 20 22 24 26 26 25 25 24 24 24 24 24 24 24 24 25 25 26 27 28 30 31 33 36 38 38 36 35 33 33 33 33 32 32 33
14 15 17 20 22 24 25 26 26 25 25 24 24 24 23 23 23 23 23 23 24 25 26 28 30 31 32 34 37 38 37 36 35 34 34 35 35 34
14 15 17 20 22 24 25 25 25 25 25 25 24 23 23 22 22 21 21 21 22 24 25 27 27 27 29 31 33 35 37 38 36 35 35 34 35 35
14 15 17 19 21 23 24 25 26 26 26 25 24 23 22 22 22 21 20 20 21 22 23 25 26 26 26 26 27 31 33 35 36 36 34 34 35 36
14 15 16 18 20 22 23 25 26 27 27 27 26 24 23 22 22 21 20 19 19 21 22 23 25 27 27 27 27 28 30 32 34 35 35 35 34 35
15 16 17 18 20 22 24 25 26 28 28 28 28 26 25 24 22 21 20 19 19 19 21 23 25 26 27 28 28 27 28 29 30 31 33 35 35 35
17 17 18 19 20 22 24 26 27 29 29 29 29 28 26 25 23 22 21 19 19 19 19 21 23 26 27 29 29 28 28 27 28 29 30 32 34 35
18 19 20 20 21 23 25 26 28 29 31 31 31 30 28 26 24 23 22 20 19 19 19 20 22 24 26 28 30 31 30 30 29 29 28 30 31 33

GEFSNE_500_meanwind_048.txt.gz
Wind_Speed
39 37 36 33 30 28 27 26 26 26 26 26 25 24 25 25 25 25 26 27 28 28 28 29 29 30 30 31 33 34 35 35 35 35 35 35 35 35
37 35 33 32 29 27 27 26 25 26 26 27 26 26 27 27 27 27 28 29 30 30 30 30 30 31 31 31 32 32 33 34 34 34 35 35 35 34
34 33 32 29 27 26 25 24 25 25 26 27 28 28 28 29 30 30 31 31 32 33 33 32 32 31 31 32 33 33 33 33 34 34 34 34 35 35
33 31 30 28 26 25 25 25 25 26 27 28 29 29 30 31 33 34 34 34 35 35 35 35 35 34 33 33 33 34 34 33 33 33 33 34 35 35
31 30 29 28 26 25 25 25 25 26 27 28 29 31 32 33 34 35 36 37 38 38 38 38 37 36 35 35 34 34 34 34 33 33 33 33 34 34
32 30 28 27 25 23 24 24 25 25 26 28 29 31 33 34 36 37 38 39 40 40 40 39 39 38 37 36 36 35 34 34 33 32 31 32 33 33
28 27 24 22 21 21 22 22 23 24 26 28 30 32 34 35 37 38 40 40 41 42 42 41 40 40 39 38 37 36 35 34 33 32 32 31 32 33
21 21 19 19 19 19 20 21 22 24 26 28 30 32 34 36 37 39 40 41 42 42 43 42 42 41 40 39 38 36 35 35 34 33 33 32 32 33
15 15 14 15 15 17 18 19 21 23 25 27 30 32 34 35 37 38 40 41 42 42 42 41 41 41 40 39 38 36 35 35 35 35 34 33 32 32
12 12 12 12 13 14 16 18 20 22 24 26 28 31 33 34 36 37 37 38 39 40 40 39 39 39 38 38 37 37 36 36 35 35 35 33 33 32
10 10 10 11 11 12 14 16 18 20 23 25 28 30 31 33 34 35 35 36 36 36 36 36 36 36 36 35 35 35 36 35 35 34 35 34 33 33
8 8 8 9 9 10 12 15 17 19 22 24 26 28 30 31 32 32 32 33 33 33 33 33 33 33 33 33 33 33 33 34 34 34 34 35 34 33
7 7 7 7 8 10 12 14 17 19 21 23 26 28 29 30 30 29 29 29 29 29 29 29 29 30 31 31 32 32 31 32 31 32 33 34 34 33
6 6 6 7 9 10 12 14 17 19 21 24 26 28 29 29 29 28 27 27 27 26 26 26 26 27 28 29 28 29 29 29 29 31 32 33 32 32
6 6 6 7 9 10 12 15 17 20 22 25 27 28 29 29 28 27 26 25 25 25 25 25 24 24 25 25 26 27 28 28 27 29 32 32 32 32
7 7 7 8 9 11 13 15 17 20 22 25 27 28 29 29 28 27 25 25 24 23 24 24 23 22 22 23 23 24 25 27 27 26 28 29 29 30
8 8 9 10 11 12 13 15 17 20 22 25 27 28 30 30 29 27 25 24 23 23 22 22 22 21 21 21 22 23 24 24 25 25 25 26 27 28
10 10 10 11 12 13 14 16 18 20 23 25 27 28 30 30 29 27 25 24 23 22 22 21 20 20 20 20 21 22 23 24 24 24 26 26 26 27
12 12 12 13 13 14 15 16 18 20 23 25 27 28 29 30 29 28 26 25 23 22 21 20 19 19 19 19 20 20 21 22 23 23 24 25 26 26
14 14 14 14 15 15 16 17 19 21 23 25 26 28 29 30 30 28 26 25 23 22 21 19 18 18 18 19 20 20 20 20 21 22 23 24 25 26
16 16 16 16 16 17 17 18 20 21 23 25 27 28 29 30 30 29 27 25 24 23 22 20 18 17 17 18 19 20 20 21 22 22 23 23 25 26
18 17 17 17 18 18 19 20 21 22 24 25 27 28 29 30 30 29 28 27 25 24 23 21 19 18 18 18 18 20 21 21 22 23 24 25 26 27
20 20 20 19 19 20 21 21 22 23 24 26 27 28 30 31 31 30 29 28 27 25 24 22 20 18 18 18 18 19 21 22 23 24 24 25 26 27